Regional Weather Roundup
Issued by NWS Jackson, KY

Home | Current Version | Previous Version | Text Only | Print | Product List | Glossary Off
Versions: 1 2 3 4 5 6 7 8 9 10 11 12 13 14 15 16 17 18 19 20 21 22 23 24 25 26 27 28 29 30 31 32 33 34 35 36 37 38 39 40 41 42 43 44 45 46 47 48 49 50

065
ASUS43 KJKL 162010
RWRJKL

EAST KENTUCKY HOURLY WEATHER ROUNDUP
NATIONAL WEATHER SERVICE JACKSON KY
400 PM EDT MON OCT 16 2017

NOTE: "FAIR" INDICATES FEW OR NO CLOUDS BELOW 12,000 FEET WITH
NO SIGNIFICANT WEATHER AND/OR OBSTRUCTIONS TO VISIBILITY.

* THESE REPORTS ARE NOT UNDER NWS QUALITY CONTROL AND MAY NOT
  REPORT WEATHER SUCH AS PRECIPITATION AND FOG.

KYZ079-080-083-085-087-088-110-112-115-119-120-162100
...EASTERN KENTUCKY...

CITY           SKY/WX    TMP DP  RH WIND       PRES   REMARKS
JACKSON        PTSUNNY   60  40  47 CALM      30.26F
LONDON         SUNNY     60  37  42 NE10      30.26F
SOMERSET*      MOSUNNY   59  37  44 NE9       30.28F
MONTICELLO*    MOSUNNY   61  41  47 N9G18     30.29F
WILLIAMSBURG*  CLEAR     59  39  47 NE8       30.26F
MIDDLESBORO*   MOSUNNY   62  41  46 N8G17     30.25F
HARLAN APT*    MOCLDY    59  37  44 NE3       30.25F
PIKE CO APT*     N/A     58  39  48 NW6       30.26S
BIG SANDY APT* CLOUDY    60  40  46 N8        30.26S
MOREHEAD APT*  MOCLDY    61  37  41 NW7       30.29F
$$

KYZ035-036-041-042-044-050-067-078-099-162100
...CENTRAL KENTUCKY...

CITY           SKY/WX    TMP DP  RH WIND       PRES   REMARKS
MT STERLING*   PTSUNNY   59  39  47 NE5       30.30S
FLEMING/MASON* MOSUNNY   58  37  45 NW6       30.29S
DANVILLE*      PTSUNNY   61  39  44 N7        30.29F
LEXINGTON      PTSUNNY   62  40  44 N8        30.29S
FRANKFORT      PTSUNNY   60  36  40 N7        30.28F
LOUISVILLE     MOSUNNY   65  39  38 NE5       30.30S
LEBANON*         N/A     59  39  47 NW8       30.29S
GLASGOW*       MOSUNNY   65  38  37 N5        30.28F
BOWLING GREEN  SUNNY     63  41  44 N8        30.29F
$$

KYZ091>093-OHZ055-061-077-WVZ005-015-034-035-042-162100
...SOUTHERN OHIO/WEST VIRGINIA...

CITY           SKY/WX    TMP DP  RH WIND       PRES   REMARKS
COVINGTON      MOSUNNY   61  36  39 N8        30.28F
COLUMBUS       MOSUNNY   61  40  45 NW12G20   30.27S
DAYTON         PTSUNNY   58  38  47 NW12      30.29S
WILMINGTON     MOSUNNY   58  41  53 NW8       30.28S
HUNTINGTON     PTSUNNY   59  38  45 NW8G17    30.26F
CHARLESTON     PTSUNNY   63  39  41 NW8       30.24F
PINEVILLE*     CLOUDY    56  38  52 MISG      30.29S
BECKLEY        CLOUDY    52  38  58 N10       30.23R
BLUEFIELD      CLOUDY    51  35  54 NW9       30.23S
LOGAN CO APT*    N/A     57  39  51 NW5       30.25S
$$

VAZ002-007-008-TNZ017-027-036-066-071-162100
...SOUTHWEST VIRGINIA/EAST TENNESSEE...

CITY           SKY/WX    TMP DP  RH WIND       PRES   REMARKS
WISE*          PTSUNNY   54  39  58 NE9       30.26S
JONESVILLE*      N/A     63  39  42 NE10      30.26F
ABINGDON*      MOSUNNY   56  39  52 N7        30.23S
BRISTOL        PTSUNNY   61  42  49 N9        30.22F
MORRISTOWN*    PTCLDY    61  41  48 VRB5G14   30.22F
SEVIERVILLE*   PTCLDY    61  41  48 E6G13     30.23F
KNOXVILLE      MOSUNNY   63  46  54 NE9       30.21F
LAFOLLETTE*    PTCLDY    61  39  44 NE12G23   30.28F
OAK RIDGE      SUNNY     64  43  46 VRB5      30.24F
CROSSVILLE     MOSUNNY   59  40  49 N9G18     30.25F
NASHVILLE      MOSUNNY   66  40  38 NE12G21   30.27F
$$

...KEY TO REMARKS...
VSB - VISIBILITY IN MILES
WCI - WIND CHILL INDEX
HX  - HEAT INDEX

$$




USA.gov is the U.S. government's official web portal to all federal, state and local government web resources and services.